CW5212 Weather Reports


Display with metric or nautical units.
time (UTC)temp
F
wind
direction
speed
MPH
gust
MPH
rain 1hr
in
rain 24hr
in
rain mn
in
humidity
%
barometer
mb
20260507151514 53 131 9.0 14.0 0.00 0.00 0.00 39 949.0
20260507150052 51 111 12.0 17.0 0.00 0.00 0.00 40 949.0
20260507144535 50 85 9.0 18.0 0.00 0.00 0.00 41 949.2
20260507143027 49 96 11.0 19.0 0.00 0.00 0.00 40 949.2
20260507141527 49 99 10.0 16.0 0.00 0.00 0.00 41 949.1
20260507140036 47 96 11.0 18.0 0.00 0.00 0.00 44 949.1
20260507134531 47 130 9.0 16.0 0.00 0.00 0.00 43 949.1
20260507133031 47 98 9.0 17.0 0.00 0.00 0.00 43 949.1
20260507131533 47 117 12.0 19.0 0.00 0.00 0.00 43 948.9
20260507130054 47 111 14.0 23.0 0.00 0.00 0.00 43 948.8
20260507124545 47 109 12.0 20.0 0.00 0.00 0.00 44 948.8
20260507123040 47 131 14.0 20.0 0.00 0.00 0.00 44 948.8
20260507121538 47 150 13.0 21.0 0.00 0.00 0.00 43 949.0
20260507120037 47 94 16.0 24.0 0.00 0.00 0.00 42 949.0
20260507114527 47 101 13.0 18.0 0.00 0.00 0.00 42 949.2
20260507113027 47 109 12.0 19.0 0.00 0.00 0.00 42 949.3
20260507111517 47 121 9.0 20.0 0.00 0.00 0.00 42 949.6
20260507110054 47 86 13.0 20.0 0.00 0.00 0.00 41 949.7
20260507104529 47 121 11.0 18.0 0.00 0.00 0.00 41 949.9
20260507103009 47 91 10.0 17.0 0.00 0.00 0.00 41 949.9
20260507101556 47 59 4.0 9.0 0.00 0.00 0.00 42 950.2
20260507100034 46 88 6.0 13.0 0.00 0.00 0.00 42 950.1
20260507094557 46 98 7.0 12.0 0.00 0.00 0.00 42 950.1
20260507094505 46 80 7.0 12.0 0.00 0.00 0.00 42 950.1
20260507093037 47 207 2.0 16.0 0.00 0.00 0.00 42 950.4
20260507091519 45 74 5.0 11.0 0.00 0.00 0.00 46 950.4
20260507090051 45 57 3.0 6.0 0.00 0.00 0.00 46 950.7
20260507084531 45 355 1.0 6.0 0.00 0.00 0.00 46 950.7
20260507083010 46 29 4.0 9.0 0.00 0.00 0.00 45 950.7
20260507081556 46 46 1.0 5.0 0.00 0.00 0.00 45 950.7
20260507080021 46 26 0.0 9.0 0.00 0.00 0.00 45 950.8
20260507074618 47 82 4.0 12.0 0.00 0.00 0.00 43 950.7
20260507074504 47 76 1.0 11.0 0.00 0.00 0.00 44 950.8
20260507073051 47 59 5.0 13.0 0.00 0.00 0.00 42 950.9
20260507071513 47 107 9.0 16.0 0.00 0.00 0.00 42 950.8
20260507070051 48 149 6.0 16.0 0.00 0.00 0.00 42 951.0
20260507064535 48 125 9.0 18.0 0.00 0.00 0.00 42 950.8
20260507063008 48 132 11.0 19.0 0.00 0.00 0.00 42 951.0
20260507061543 48 98 10.0 18.0 0.00 0.00 0.00 42 951.0
20260507060033 49 126 7.0 13.0 0.00 0.00 0.00 44 951.2
20260507054538 50 118 7.0 12.0 0.00 0.00 0.00 44 951.0
20260507053029 51 138 8.0 12.0 0.00 0.00 0.00 42 951.1
20260507051509 53 160 5.0 11.0 0.00 0.00 0.00 40 951.4
20260507050042 54 199 7.0 11.0 0.00 0.00 0.00 39 951.6
20260507044533 55 147 5.0 10.0 0.00 0.00 0.00 39 951.7
20260507043056 55 203 9.0 21.0 0.00 0.00 0.00 38 951.9
20260507041543 55 181 9.0 17.0 0.00 0.00 0.00 38 951.9
20260507040013 55 204 12.0 18.0 0.00 0.00 0.00 38 951.8
20260507034550 54 219 11.0 19.0 0.00 0.00 0.00 38 951.7
20260507033032 54 194 9.0 20.0 0.00 0.00 0.00 39 951.7
20260507031506 53 192 7.0 12.0 0.00 0.00 0.00 39 951.7
20260507030045 54 210 5.0 16.0 0.00 0.00 0.00 39 951.7
20260507024520 54 232 9.0 15.0 0.00 0.00 0.00 38 951.8
20260507023058 53 214 7.0 13.0 0.00 0.00 0.00 39 951.9
20260507021534 54 231 6.0 15.0 0.00 0.00 0.00 37 951.8
20260507020014 55 199 8.0 16.0 0.00 0.00 0.00 35 951.9
20260507014604 56 242 11.0 21.0 0.00 0.00 0.00 33 952.0
20260507013048 57 234 12.0 23.0 0.00 0.00 0.00 32 952.0
20260507011540 57 250 10.0 19.0 0.00 0.00 0.00 32 952.0
20260507010040 58 257 11.0 21.0 0.00 0.00 0.00 31 951.8
20260507004539 58 255 13.0 18.0 0.00 0.00 0.00 30 951.9
20260507003036 59 250 11.0 16.0 0.00 0.00 0.00 29 952.1
20260507001538 58 291 9.0 17.0 0.00 0.00 0.00 29 952.3
20260507000044 58 271 12.0 19.0 0.00 0.00 0.00 29 952.2
20260506234545 58 254 13.0 20.0 0.00 0.00 0.00 27 952.2
20260506233042 58 263 10.0 19.0 0.00 0.00 0.00 28 952.3
20260506231547 58 207 9.0 18.0 0.00 0.00 0.00 28 952.2
20260506230052 58 263 11.0 19.0 0.00 0.00 0.00 27 952.3
20260506224539 58 248 6.0 17.0 0.00 0.00 0.00 28 952.6
20260506223046 57 276 8.0 15.0 0.00 0.00 0.00 27 952.9
20260506221532 57 238 8.0 13.0 0.00 0.00 0.00 28 953.0
20260506220031 56 234 7.0 12.0 0.00 0.00 0.00 28 953.1
20260506214514 55 251 7.0 15.0 0.00 0.00 0.00 29 953.3
20260506213103 55 278 8.0 16.0 0.00 0.00 0.00 28 953.4
20260506211538 55 260 10.0 16.0 0.00 0.00 0.00 28 953.4
20260506210008 54 201 10.0 17.0 0.00 0.00 0.00 28 953.3
20260506204549 54 244 12.0 17.0 0.00 0.00 0.00 27 953.6
20260506203027 54 246 10.0 17.0 0.00 0.00 0.00 27 953.7
20260506201604 54 223 6.0 18.0 0.00 0.00 0.00 28 953.7
20260506200037 54 257 8.0 13.0 0.00 0.00 0.00 28 953.5
20260506194512 53 269 9.0 14.0 0.00 0.00 0.00 27 953.5
20260506193050 53 242 5.0 17.0 0.00 0.00 0.00 27 953.4
20260506191533 53 295 5.0 12.0 0.00 0.00 0.00 27 953.6
20260506190006 53 198 3.0 8.0 0.00 0.00 0.00 26 953.7
20260506184542 52 222 2.0 8.0 0.00 0.00 0.00 28 953.8
20260506183028 51 236 6.0 13.0 0.00 0.00 0.00 29 954.0
20260506181556 52 284 0.0 5.0 0.00 0.00 0.00 26 954.0
20260506180035 50 313 0.0 6.0 0.00 0.00 0.00 28 953.9
20260506174512 49 283 1.0 10.0 0.00 0.00 0.00 25 954.1
20260506173051 49 355 3.0 12.0 0.00 0.00 0.00 27 954.1
20260506171530 48 102 1.0 7.0 0.00 0.00 0.00 26 954.0
20260506170006 47 22 3.0 8.0 0.00 0.00 0.00 23 954.0
20260506164540 47 61 2.0 6.0 0.00 0.00 0.00 23 953.9
20260506163022 45 19 1.0 4.0 0.00 0.00 0.00 21 953.8
20260506161558 44 35 3.0 6.0 0.00 0.00 0.00 24 953.8
20260506161502 44 37 2.0 6.0 0.00 0.00 0.00 23 953.8
20260506160054 42 337 2.0 6.0 0.00 0.00 0.00 29 953.8
20260506154547 43 28 1.0 9.0 0.00 0.00 0.00 26 953.7
20260506153045 41 249 1.0 6.0 0.00 0.00 0.00 31 953.5